DW6064 Weather Reports


Display with metric or nautical units.
time (UTC)temp
F
wind
direction
speed
MPH
gust
MPH
rain 1hr
in
rain 24hr
in
rain mn
in
humidity
%
barometer
mb
20210613213540 75 157 0.0 0.0 0.00 0.04 0.04 77 1010.7
20210613213038 75 190 0.0 0.0 0.00 0.04 0.04 76 1010.7
20210613212535 76 174 0.0 0.0 0.00 0.04 0.04 75 1010.7
20210613212037 76 196 0.0 0.0 0.00 0.04 0.04 76 1010.8
20210613211533 76 179 0.0 0.0 0.00 0.04 0.04 75 1010.8
20210613211029 76 182 0.0 0.0 0.00 0.04 0.04 75 1011.0
20210613210524 76 171 0.0 0.0 0.00 0.04 0.04 75 1010.9
20210613210041 76 157 0.0 0.0 0.00 0.04 0.04 75 1010.8
20210613205534 76 172 0.0 0.0 0.00 0.04 0.04 75 1011.0
20210613205031 76 190 0.0 0.0 0.00 0.04 0.04 76 1010.9
20210613204525 76 172 0.0 0.0 0.00 0.04 0.04 75 1011.1
20210613204041 76 117 0.0 0.0 0.00 0.04 0.04 74 1011.2
20210613203534 76 173 0.0 0.0 0.00 0.04 0.04 76 1011.1
20210613203034 76 180 0.0 0.0 0.00 0.04 0.04 76 1011.2
20210613202529 76 165 0.0 0.0 0.00 0.04 0.04 76 1011.3
20210613202027 76 172 0.0 0.0 0.00 0.04 0.04 78 1011.4
20210613201543 76 126 0.0 0.0 0.00 0.04 0.04 77 1011.4
20210613201041 76 153 0.0 0.0 0.00 0.04 0.04 77 1011.5
20210613200535 76 202 0.0 0.0 0.00 0.04 0.04 77 1011.7
20210613200036 76 189 0.0 0.0 0.00 0.04 0.04 78 1011.8
20210613195531 75 192 0.0 0.0 0.00 0.04 0.04 79 1011.8
20210613195028 75 224 0.0 0.0 0.00 0.04 0.04 78 1012.1
20210613194526 75 215 0.0 0.0 0.00 0.04 0.04 80 1012.2
20210613194043 75 202 0.0 0.0 0.00 0.04 0.04 80 1012.2
20210613193539 75 188 0.0 0.0 0.00 0.04 0.04 81 1012.3
20210613193038 75 225 0.0 0.0 0.00 0.04 0.04 81 1012.4
20210613192536 75 219 0.0 0.0 0.00 0.04 0.04 81 1012.4
20210613192033 75 219 0.0 0.0 0.00 0.04 0.04 81 1012.1
20210613191528 75 220 0.0 0.0 0.00 0.04 0.04 81 1012.2
20210613191029 75 227 0.0 0.0 0.00 0.04 0.04 80 1012.1
20210613190525 75 231 0.0 0.0 0.00 0.04 0.04 80 1012.2
20210613190044 75 239 0.0 0.0 0.00 0.04 0.04 80 1012.0
20210613185537 75 235 0.0 0.0 0.00 0.04 0.04 80 1012.0
20210613185034 75 217 0.0 0.0 0.00 0.04 0.04 80 1012.0
20210613184533 75 215 0.0 0.0 0.00 0.04 0.04 80 1012.0
20210613184029 75 238 0.0 0.0 0.00 0.04 0.04 81 1012.0
20210613183524 75 209 0.0 0.0 0.00 0.04 0.04 81 1012.0
20210613183042 74 227 0.0 0.0 0.00 0.04 0.04 82 1012.1
20210613182538 74 246 0.0 0.0 0.00 0.04 0.04 83 1012.2
20210613182037 73 200 0.0 0.0 0.00 0.04 0.04 83 1012.2
20210613181532 73 200 0.0 0.0 0.00 0.04 0.04 85 1012.2
20210613181029 73 250 0.0 0.0 0.00 0.04 0.04 86 1012.1
20210613180524 72 183 0.0 0.0 0.00 0.04 0.04 86 1012.2
20210613180043 72 220 0.0 0.0 0.00 0.04 0.04 86 1012.2
20210613175537 72 187 0.0 0.0 0.00 0.04 0.04 87 1012.2
20210613175037 72 202 0.0 0.0 0.00 0.04 0.04 87 1012.1
20210613174534 72 213 0.0 0.0 0.00 0.04 0.04 87 1012.1
20210613174030 72 175 0.0 0.0 0.01 0.04 0.04 88 1012.2
20210613173527 72 188 0.0 0.0 0.01 0.04 0.04 88 1012.3
20210613173032 72 181 0.0 5.0 0.01 0.04 0.04 88 1012.4
20210613172529 71 200 1.0 7.0 0.02 0.04 0.04 87 1012.5
20210613172027 72 189 3.0 7.0 0.03 0.04 0.04 88 1012.7
20210613171542 71 203 2.0 5.0 0.04 0.04 0.04 87 1012.7
20210613171042 71 199 1.0 4.0 0.04 0.04 0.04 87 1012.9
20210613170535 71 209 1.0 6.0 0.04 0.04 0.04 88 1012.9
20210613170034 71 207 1.0 6.0 0.04 0.04 0.04 87 1012.8
20210613165529 71 221 2.0 5.0 0.04 0.04 0.04 87 1012.8
20210613165027 71 210 2.0 4.0 0.04 0.04 0.04 87 1012.6
20210613164542 71 182 0.0 6.0 0.04 0.04 0.04 87 1012.3
20210613164038 71 153 2.0 9.0 0.03 0.03 0.03 87 1012.1
20210613163532 71 174 2.0 9.0 0.03 0.03 0.03 87 1012.0
20210613163027 71 152 0.0 5.0 0.02 0.02 0.02 86 1011.9
20210613162539 71 165 0.0 5.0 0.02 0.02 0.02 86 1012.0
20210613162036 71 203 0.0 2.0 0.01 0.01 0.01 85 1012.5
20210613161532 71 186 0.0 4.0 0.00 0.00 0.00 85 1012.5
20210613161034 71 173 0.0 4.0 0.00 0.00 0.00 84 1012.5
20210613160530 71 199 0.0 1.0 0.00 0.00 0.00 84 1012.7
20210613160029 72 201 0.0 1.0 0.00 0.00 0.00 84 1012.9
20210613155543 71 219 0.0 0.0 0.00 0.00 0.00 84 1013.2
20210613155043 72 229 0.0 0.0 0.00 0.00 0.00 83 1013.2
20210613154531 72 210 0.0 0.0 0.00 0.00 0.00 83 1013.1
20210613154029 72 213 0.0 0.0 0.00 0.00 0.00 83 1013.0
20210613153543 72 217 0.0 0.0 0.00 0.00 0.00 83 1013.2
20210613153041 72 223 0.0 0.0 0.00 0.00 0.00 82 1013.2
20210613152535 72 232 0.0 0.0 0.00 0.00 0.00 82 1013.3
20210613152032 72 232 0.0 0.0 0.00 0.00 0.00 82 1013.2
20210613151529 72 193 0.0 0.0 0.00 0.00 0.00 82 1013.1
20210613151024 72 211 0.0 0.0 0.00 0.00 0.00 83 1013.0
20210613150540 72 202 0.0 0.0 0.00 0.00 0.00 83 1013.0
20210613150038 72 220 0.0 0.0 0.00 0.00 0.00 83 1013.0
20210613145533 72 212 0.0 0.0 0.00 0.00 0.00 83 1013.0
20210613145035 72 225 0.0 0.0 0.00 0.00 0.00 83 1012.9
20210613144530 72 223 0.0 0.0 0.00 0.00 0.00 83 1012.9
20210613144028 71 175 0.0 0.0 0.00 0.00 0.00 83 1012.9
20210613143525 71 180 0.0 0.0 0.00 0.00 0.00 83 1013.0
20210613143042 71 190 0.0 0.0 0.00 0.00 0.00 83 1013.0
20210613142536 71 210 0.0 0.0 0.00 0.00 0.00 84 1013.1
20210613142033 71 217 0.0 0.0 0.00 0.00 0.00 83 1013.1
20210613141531 71 193 0.0 0.0 0.00 0.00 0.00 83 1013.1
20210613141024 71 210 0.0 0.0 0.00 0.00 0.00 83 1013.1
20210613140541 71 138 0.0 0.0 0.00 0.00 0.00 83 1012.9
20210613140040 71 176 0.0 0.0 0.00 0.00 0.00 83 1013.0
20210613135536 71 209 0.0 0.0 0.00 0.00 0.00 83 1013.0
20210613135034 71 171 0.0 0.0 0.00 0.00 0.00 83 1013.1
20210613134530 71 184 0.0 0.0 0.00 0.00 0.00 83 1013.1
20210613134025 71 209 0.0 0.0 0.00 0.00 0.00 84 1013.0
20210613133529 71 194 0.0 0.0 0.00 0.00 0.00 84 1013.1
20210613133025 70 229 0.0 0.0 0.00 0.00 0.00 84 1013.2
20210613132622 70 198 0.0 0.0 0.00 0.00 0.00 84 1013.2
20210613132038 70 188 0.0 0.0 0.00 0.00 0.00 84 1013.2
20210613131535 70 206 0.0 0.0 0.00 0.00 0.00 85 1013.1
20210613131031 70 207 0.0 0.0 0.00 0.00 0.00 85 1013.0
20210613130529 70 211 0.0 0.0 0.00 0.00 0.00 84 1013.1
20210613130025 70 207 0.0 0.0 0.00 0.00 0.00 85 1013.1
20210613125539 70 196 0.0 0.0 0.00 0.00 0.00 85 1013.1
20210613125035 70 175 0.0 0.0 0.00 0.00 0.00 85 1013.1
20210613124532 70 190 0.0 0.0 0.00 0.00 0.00 85 1013.1
20210613124031 69 204 0.0 0.0 0.00 0.00 0.00 86 1013.1
20210613123527 69 181 0.0 0.0 0.00 0.00 0.00 86 1013.0
20210613123027 69 250 0.0 0.0 0.00 0.00 0.00 87 1013.0
20210613122524 68 187 0.0 0.0 0.00 0.00 0.00 87 1013.0
20210613122043 68 174 0.0 0.0 0.00 0.00 0.00 87 1013.0
20210613121538 68 167 0.0 0.0 0.00 0.00 0.00 87 1012.9
20210613121037 68 191 0.0 0.0 0.00 0.00 0.00 88 1013.1
20210613120535 68 209 0.0 0.0 0.00 0.00 0.00 88 1013.0
20210613120032 68 196 0.0 0.0 0.00 0.00 0.00 88 1013.0
20210613115531 68 207 0.0 0.0 0.00 0.00 0.00 89 1013.0
20210613115031 68 267 0.0 0.0 0.00 0.00 0.00 89 1012.9
20210613114525 68 355 0.0 0.0 0.00 0.00 0.00 89 1013.0
20210613114040 67 355 0.0 0.0 0.00 0.00 0.00 89 1013.0
20210613113535 67 292 0.0 0.0 0.00 0.00 0.00 89 1013.0
20210613113034 67 292 0.0 0.0 0.00 0.00 0.00 89 1013.0
20210613112531 67 290 0.0 0.0 0.00 0.00 0.00 89 1013.1
20210613112029 67 290 0.0 0.0 0.00 0.00 0.00 89 1013.0
20210613111525 67 195 0.0 0.0 0.00 0.00 0.00 89 1012.9
20210613111043 66 172 0.0 0.0 0.00 0.00 0.00 89 1012.7
20210613110538 66 172 0.0 0.0 0.00 0.00 0.00 89 1012.7
20210613110035 66 172 0.0 0.0 0.00 0.00 0.00 89 1012.6
20210613105531 66 182 0.0 0.0 0.00 0.00 0.00 89 1012.7
20210613105029 66 182 0.0 0.0 0.00 0.00 0.00 89 1012.8
20210613104526 66 182 0.0 0.0 0.00 0.00 0.00 89 1012.7
20210613104027 66 182 0.0 0.0 0.00 0.00 0.00 89 1012.7
20210613103542 66 182 0.0 0.0 0.00 0.00 0.00 89 1012.7
20210613103041 66 182 0.0 0.0 0.00 0.00 0.00 89 1012.6
20210613102536 66 175 0.0 0.0 0.00 0.00 0.00 89 1012.5
20210613102032 65 95 0.0 0.0 0.00 0.00 0.00 89 1012.6
20210613101529 65 95 0.0 0.0 0.00 0.00 0.00 89 1012.6
20210613101025 65 94 0.0 0.0 0.00 0.00 0.00 89 1012.5
20210613100538 65 94 0.0 0.0 0.00 0.00 0.00 89 1012.4
20210613100036 65 94 0.0 0.0 0.00 0.00 0.00 89 1012.5
20210613095531 65 167 0.0 0.0 0.00 0.00 0.00 89 1012.4
20210613095029 65 166 0.0 0.0 0.00 0.00 0.00 89 1012.4
20210613094526 65 166 0.0 0.0 0.00 0.00 0.00 89 1012.2
20210613094043 65 156 0.0 0.0 0.00 0.00 0.00 89 1012.3
20210613093539 65 156 0.0 0.0 0.00 0.00 0.00 89 1012.3
20210613093039 65 156 0.0 0.0 0.00 0.00 0.00 89 1012.3
20210613092535 65 156 0.0 0.0 0.00 0.00 0.00 89 1012.4
20210613092029 65 155 0.0 0.0 0.00 0.00 0.00 89 1012.3
20210613091524 65 156 0.0 0.0 0.00 0.00 0.00 89 1012.3
20210613091043 65 156 0.0 0.0 0.00 0.00 0.00 89 1012.3
20210613090540 64 156 0.0 0.0 0.00 0.00 0.00 89 1012.2
20210613090039 64 156 0.0 0.0 0.00 0.00 0.00 89 1012.1
20210613085537 64 156 0.0 0.0 0.00 0.00 0.00 89 1012.1
20210613085036 64 156 0.0 0.0 0.00 0.00 0.00 89 1012.1
20210613084532 64 156 0.0 0.0 0.00 0.00 0.00 89 1012.1
20210613084030 64 155 0.0 0.0 0.00 0.00 0.00 89 1012.0
20210613083527 64 155 0.0 0.0 0.00 0.00 0.00 89 1012.1
20210613083045 64 155 0.0 0.0 0.00 0.00 0.00 89 1012.1
20210613082541 64 159 0.0 0.0 0.00 0.00 0.00 89 1012.1
20210613082041 64 159 0.0 0.0 0.00 0.00 0.00 89 1012.2
20210613081537 64 159 0.0 0.0 0.00 0.00 0.00 89 1012.2
20210613081036 64 160 0.0 0.0 0.00 0.00 0.00 89 1012.2
20210613080530 64 160 0.0 0.0 0.00 0.00 0.00 89 1012.2
20210613080029 64 160 0.0 0.0 0.00 0.00 0.00 89 1012.1
20210613075527 64 178 0.0 0.0 0.00 0.01 0.00 89 1012.1
20210613075043 64 178 0.0 0.0 0.00 0.01 0.00 89 1012.2
20210613074538 64 178 0.0 0.0 0.00 0.01 0.00 89 1012.2
20210613074042 64 178 0.0 0.0 0.00 0.01 0.00 89 1012.1
20210613073535 64 159 0.0 0.0 0.00 0.01 0.00 89 1012.0
20210613073033 64 159 0.0 0.0 0.00 0.01 0.00 89 1012.0
20210613072530 64 159 0.0 0.0 0.00 0.01 0.00 89 1012.0
20210613072025 65 159 0.0 0.0 0.00 0.01 0.00 89 1012.0
20210613071542 65 159 0.0 0.0 0.00 0.01 0.00 89 1012.0
20210613071040 65 159 0.0 0.0 0.00 0.01 0.00 89 1012.1
20210613070537 65 159 0.0 0.0 0.00 0.01 0.00 89 1012.2
20210613070035 65 159 0.0 0.0 0.00 0.01 0.00 89 1012.2
20210613065528 65 159 0.0 0.0 0.00 0.01 0.00 89 1012.2
20210613065028 65 159 0.0 0.0 0.00 0.01 0.00 89 1012.3
20210613064524 65 159 0.0 0.0 0.00 0.01 0.00 89 1012.4
20210613064039 65 159 0.0 0.0 0.00 0.01 0.00 89 1012.3
20210613063535 65 159 0.0 0.0 0.00 0.01 0.00 89 1012.3
20210613063033 65 159 0.0 0.0 0.00 0.01 0.00 89 1012.2
20210613062530 65 159 0.0 0.0 0.00 0.01 0.00 89 1012.1
20210613062025 65 159 0.0 0.0 0.00 0.01 0.00 89 1012.4
20210613061542 65 159 0.0 0.0 0.00 0.01 0.00 89 1012.4
20210613061040 65 159 0.0 0.0 0.00 0.01 0.00 89 1012.3
20210613060536 65 159 0.0 0.0 0.00 0.01 0.00 89 1012.1
20210613060031 65 171 0.0 0.0 0.00 0.01 0.00 89 1012.3
20210613055525 65 171 0.0 0.0 0.00 0.01 0.00 89 1012.3
20210613055044 65 173 0.0 0.0 0.00 0.01 0.00 89 1012.2
20210613054540 65 142 0.0 0.0 0.00 0.01 0.00 89 1012.4
20210613054039 65 142 0.0 0.0 0.00 0.01 0.00 89 1012.4
20210613053536 64 142 0.0 0.0 0.00 0.01 0.00 88 1012.6
20210613053039 64 142 0.0 0.0 0.00 0.01 0.00 88 1012.4
20210613052534 64 142 0.0 0.0 0.00 0.01 0.00 88 1012.6
20210613052031 65 142 0.0 0.0 0.00 0.01 0.00 88 1012.4
20210613051532 65 142 0.0 0.0 0.00 0.01 0.00 88 1012.4
20210613051024 65 142 0.0 0.0 0.00 0.01 0.00 89 1012.3
20210613050541 65 153 0.0 0.0 0.00 0.01 0.00 89 1012.3
20210613050039 65 153 0.0 0.0 0.00 0.01 0.00 88 1012.2
20210613045535 65 153 0.0 0.0 0.00 0.01 0.00 88 1012.3
20210613045034 64 155 0.0 0.0 0.00 0.01 0.00 88 1012.3
20210613044528 64 161 0.0 0.0 0.00 0.01 0.00 88 1012.3
20210613044028 64 160 0.0 0.0 0.00 0.01 0.00 88 1012.4
20210613043524 64 160 0.0 0.0 0.00 0.01 0.00 88 1012.6
20210613043041 64 160 0.0 0.0 0.00 0.01 0.00 88 1012.5
20210613042535 65 160 0.0 0.0 0.00 0.01 0.00 88 1012.5
20210613042033 65 160 0.0 0.0 0.00 0.01 0.00 88 1012.6
20210613041530 65 160 0.0 0.0 0.00 0.01 0.00 88 1012.7
20210613041028 65 160 0.0 0.0 0.00 0.01 0.00 88 1012.5
20210613040524 65 160 0.0 0.0 0.00 0.01 0.00 88 1012.4
20210613040042 65 160 0.0 0.0 0.00 0.01 0.00 87 1012.3
20210613035537 65 167 0.0 0.0 0.00 0.02 0.01 87 1012.2
20210613035036 65 159 0.0 0.0 0.00 0.02 0.01 87 1012.1
20210613034533 65 147 0.0 0.0 0.00 0.02 0.01 87 1012.2
20210613034032 66 147 0.0 0.0 0.00 0.02 0.01 87 1012.4
20210613033529 66 147 0.0 0.0 0.00 0.02 0.01 87 1012.3
20210613033026 66 147 0.0 0.0 0.00 0.02 0.01 87 1012.3
20210613032542 66 147 0.0 0.0 0.00 0.02 0.01 87 1012.4
20210613032040 66 150 0.0 0.0 0.00 0.02 0.01 87 1012.3
20210613031535 66 163 0.0 0.0 0.00 0.02 0.01 87 1012.3
20210613031035 67 161 0.0 0.0 0.00 0.02 0.01 87 1012.3
20210613030529 67 151 0.0 0.0 0.00 0.02 0.01 86 1012.4
20210613030031 67 175 0.0 0.0 0.00 0.02 0.01 87 1012.3
20210613025528 67 178 0.0 0.0 0.00 0.02 0.01 87 1012.3
20210613025044 68 178 0.0 0.0 0.00 0.02 0.01 86 1012.4
20210613024537 68 247 0.0 0.0 0.00 0.02 0.01 86 1012.3
20210613024036 68 247 0.0 0.0 0.00 0.02 0.01 86 1012.3
20210613023532 68 247 0.0 0.0 0.00 0.02 0.01 86 1012.3
20210613023031 68 247 0.0 0.0 0.00 0.02 0.01 86 1012.3
20210613022525 68 247 0.0 0.0 0.00 0.02 0.01 86 1012.3
20210613022044 68 247 0.0 0.0 0.00 0.02 0.01 86 1012.2
20210613021539 68 247 0.0 0.0 0.00 0.02 0.01 86 1012.2
20210613021038 68 247 0.0 0.0 0.00 0.02 0.01 86 1012.2
20210613020531 68 247 0.0 0.0 0.00 0.02 0.01 85 1012.1
20210613020029 68 247 0.0 0.0 0.00 0.02 0.01 85 1012.1
20210613015525 68 247 0.0 0.0 0.00 0.02 0.01 85 1011.9
20210613015043 68 247 0.0 0.0 0.00 0.02 0.01 85 1011.9
20210613014538 68 247 0.0 0.0 0.00 0.02 0.01 84 1011.8
20210613014042 68 247 0.0 0.0 0.00 0.02 0.01 84 1011.7
20210613013538 68 247 0.0 0.0 0.00 0.02 0.01 84 1011.8
20210613013034 68 247 0.0 0.0 0.00 0.02 0.01 84 1011.9
20210613012528 69 247 0.0 0.0 0.00 0.02 0.01 83 1011.8
20210613012025 69 247 0.0 0.0 0.00 0.02 0.01 82 1011.8
20210613011540 69 247 0.0 0.0 0.00 0.02 0.01 82 1011.6
20210613011037 69 247 0.0 0.0 0.00 0.02 0.01 82 1011.6
20210613010533 70 247 0.0 0.0 0.00 0.02 0.01 82 1011.4
20210613010030 70 247 0.0 0.0 0.00 0.02 0.01 81 1011.3
20210613005525 70 247 0.0 0.0 0.00 0.04 0.01 81 1011.3
20210613005043 70 247 0.0 0.0 0.00 0.04 0.01 81 1011.1
20210613004538 70 216 0.0 0.0 0.00 0.04 0.01 80 1011.1
20210613004037 71 216 0.0 0.0 0.00 0.04 0.01 80 1011.1
20210613003532 71 216 0.0 0.0 0.00 0.04 0.01 80 1011.1
20210613003029 71 216 0.0 0.0 0.00 0.04 0.01 79 1011.1
20210613002529 71 216 0.0 0.0 0.00 0.04 0.01 79 1011.1
20210613002025 71 215 0.0 0.0 0.00 0.04 0.01 79 1011.1
20210613001541 72 215 0.0 0.0 0.00 0.04 0.01 78 1010.9
20210613001040 72 216 0.0 0.0 0.00 0.04 0.01 78 1010.9
20210613000536 72 217 0.0 0.0 0.00 0.04 0.01 78 1010.9
20210613000037 72 217 0.0 0.0 0.00 0.04 0.01 78 1011.0
20210612235535 72 217 0.0 0.0 0.00 0.04 0.01 77 1010.9
20210612235035 72 63 0.0 0.0 0.00 0.04 0.01 77 1011.0
20210612234533 73 148 0.0 0.0 0.00 0.04 0.01 76 1010.8
20210612234030 73 235 0.0 0.0 0.00 0.04 0.01 75 1010.9
20210612233525 73 235 0.0 0.0 0.00 0.04 0.01 75 1010.8
20210612233044 73 138 0.0 0.0 0.00 0.04 0.01 75 1010.7
20210612232539 73 132 0.0 0.0 0.00 0.04 0.01 74 1010.7
20210612232035 74 124 0.0 0.0 0.00 0.04 0.01 73 1010.7
20210612231532 74 65 0.0 0.0 0.00 0.04 0.01 73 1010.8
20210612231036 74 69 0.0 0.0 0.00 0.04 0.01 73 1010.8
20210612230533 74 113 0.0 0.0 0.00 0.04 0.01 73 1010.9
20210612230025 74 68 0.0 0.0 0.00 0.04 0.01 73 1011.0
20210612225541 74 82 0.0 0.0 0.00 0.04 0.01 73 1011.0
20210612225040 74 83 0.0 0.0 0.00 0.04 0.01 75 1011.2
20210612224533 73 44 0.0 0.0 0.00 0.04 0.01 76 1011.1
20210612224031 73 39 0.0 0.0 0.00 0.04 0.01 77 1011.1
20210612223525 73 42 0.0 0.0 0.00 0.04 0.01 77 1011.1
20210612223043 73 28 0.0 0.0 0.00 0.04 0.01 77 1011.3
20210612222538 73 10 0.0 0.0 0.00 0.04 0.01 77 1011.3
20210612222036 73 335 0.0 0.0 0.00 0.04 0.01 77 1011.3
20210612221532 73 319 0.0 0.0 0.00 0.04 0.01 77 1011.1
20210612221025 73 16 0.0 0.0 0.00 0.04 0.01 76 1011.1
20210612220541 73 28 0.0 0.0 0.00 0.04 0.01 76 1011.1
20210612220037 73 19 0.0 0.0 0.00 0.04 0.01 76 1011.1
20210612215530 73 77 0.0 0.0 0.00 0.04 0.01 76 1011.0
20210612215028 73 323 0.0 0.0 0.00 0.04 0.01 76 1010.9
20210612214540 73 5 0.0 0.0 0.00 0.04 0.01 76 1010.9
20210612214031 74 355 0.0 0.0 0.00 0.04 0.01 75 1010.9